Location: Trois-Rivi�res
(46.3500°N, 72.5500°W)
Time: 07:20:46
(UTC-04:00)

Vanguard 1 - All Passes

Search period start: 17 August 2018 00:00
Search period end: 27 August 2018 00:00
Orbit: 650 x 3833 km, 34.3° (Epoch: 17 August)

Date Brightness Start Highest point End Pass type
(mag) Time Alt. Az. Time Alt. Az. Time Alt. Az.
17 Aug - 12:07:14 10° S 12:21:30 21° SE 12:35:41 10° E daylight
17 Aug - 14:23:46 10° SW 14:44:39 44° SSE 15:02:07 10° E daylight
17 Aug - 16:47:07 10° WSW 17:09:11 56° S 17:23:57 10° ESE daylight
17 Aug - 19:13:51 10° W 19:32:19 46° SSW 19:43:21 10° SE daylight
17 Aug - 21:42:47 10° W 21:52:13 20° SW 21:58:56 10° S visible
18 Aug - 12:25:25 10° S 12:41:56 27° SE 12:58:20 10° E daylight
18 Aug - 14:44:01 10° SW 15:05:37 49° SSE 15:23:19 10° E daylight
18 Aug - 17:08:15 10° WSW 17:30:15 56° S 17:44:44 10° ESE daylight
18 Aug - 19:35:23 10° W 19:52:56 41° SSW 20:03:37 10° SE daylight
18 Aug - 22:05:57 10° W 22:12:13 14° SW 22:17:12 10° SSW visible
19 Aug - 12:44:24 10° SSW 13:02:29 33° SE 13:20:21 10° E daylight
19 Aug - 15:04:33 10° SW 15:26:39 53° SSE 15:44:23 10° E daylight
19 Aug - 17:29:30 10° WSW 17:51:16 55° S 18:05:27 10° ESE daylight
19 Aug - 19:57:03 10° W 20:13:24 35° SW 20:23:40 10° SSE visible
20 Aug - 10:51:06 10° SSE 11:01:04 15° SE 11:11:42 10° E daylight
20 Aug - 13:03:56 10° SSW 13:23:08 39° SSE 13:42:01 10° E daylight
20 Aug - 15:25:19 10° WSW 15:47:45 56° S 16:05:23 10° E daylight
20 Aug - 17:50:51 10° W 18:12:12 53° SSW 18:26:02 10° SE daylight
20 Aug - 20:18:55 10° W 20:33:43 29° SW 20:43:25 10° SSE visible
21 Aug - 11:07:58 10° S 11:21:14 21° SE 11:35:46 10° E daylight
21 Aug - 13:23:51 10° SW 13:43:54 45° SSE 14:03:25 10° E daylight
21 Aug - 15:46:14 10° WSW 16:08:53 58° S 16:26:20 10° ESE daylight
21 Aug - 18:12:16 10° W 18:33:03 49° SSW 18:46:31 10° SE daylight
21 Aug - 20:41:08 10° W 20:53:52 23° SW 21:02:45 10° S visible
22 Aug - 11:26:15 10° S 11:41:30 27° SE 11:58:30 10° E daylight
22 Aug - 13:44:05 10° SW 14:04:49 50° SSE 14:24:42 10° E daylight
22 Aug - 16:07:19 10° WSW 16:30:01 58° S 16:47:11 10° ESE daylight
22 Aug - 18:33:47 10° W 18:53:44 44° SSW 19:06:48 10° SE daylight
22 Aug - 21:03:58 10° W 21:13:52 18° SW 21:21:21 10° SSW visible
23 Aug - 11:45:18 10° SSW 12:01:53 33° SE 12:20:37 10° E daylight
23 Aug - 14:04:36 10° SW 14:25:49 54° SSE 14:45:53 10° E daylight
23 Aug - 16:28:30 10° WSW 16:51:06 57° S 17:07:57 10° ESE daylight
23 Aug - 18:55:25 10° W 19:14:17 39° SW 19:26:52 10° SSE daylight
23 Aug - 21:28:30 10° WSW 21:33:45 12° WSW 21:38:17 10° SW visible
24 Aug - 09:52:51 10° SSE 10:01:11 14° ESE 10:10:31 10° E daylight
24 Aug - 12:04:52 10° SSW 12:22:25 39° SE 12:42:22 10° E daylight
24 Aug - 14:25:17 10° WSW 14:46:55 57° S 15:06:58 10° E daylight
24 Aug - 16:49:46 10° W 17:12:07 55° SSW 17:28:36 10° SE daylight
24 Aug - 19:17:14 10° W 19:34:39 33° SW 19:46:39 10° SSE daylight
25 Aug - 10:09:39 10° SSE 10:21:11 20° SE 10:34:52 10° E daylight
25 Aug - 12:24:48 10° SW 12:43:05 45° SSE 13:03:53 10° E daylight
25 Aug - 14:46:09 10° WSW 15:08:03 59° S 15:27:59 10° ESE daylight
25 Aug - 17:11:06 10° W 17:33:03 51° SSW 17:49:06 10° SE daylight
25 Aug - 19:39:21 10° W 19:54:52 27° SW 20:06:01 10° S daylight
26 Aug - 10:27:58 10° S 10:41:18 26° SE 10:57:47 10° E daylight
26 Aug - 12:45:01 10° SW 13:03:54 50° SSE 13:25:16 10° E daylight
26 Aug - 15:07:08 10° WSW 15:29:14 59° S 15:48:55 10° ESE daylight
26 Aug - 17:32:33 10° W 17:53:50 46° SSW 18:09:25 10° SE daylight
26 Aug - 20:02:01 10° W 20:14:55 21° SW 20:24:47 10° S visible
